sat.trackr.live / text

‹ back to catalog

STARLINK-30705

NORAD 57945 · 2023-148L

PAYLOAD ACTIVE UNKNOWN

§ Identity

Operator
Country
US
Launch date
2023-09-25
Launch site
AFWTR
Launch vehicle
Mass (kg)
RCS (m²)

Purposes: comms

External: N2YO · Heavens-Above · Gunter

§ Orbital elements

Epoch: 2026-05-25T02:28:56.048736Z

Period
93.85 min
Inclination
53.1607°
Eccentricity
0.0000914
Mean motion
15.34391799 rev/d
Perigee alt
462.1 km
Apogee alt
463.4 km
Semi-major
6,840.9 km
B*
1.2300e-5
RAAN
29.2087°
Arg perigee
78.1241°
Mean anomaly
281.9864°
Rev number
15,012

§ Raw data

STARLINK-307051 57945U 23148L   26145.10342649  .00000040  00000+0  12300-4 0  99982 57945  53.1607  29.2087 0000914  78.1241 281.9864 15.34391799150127

JSON: /api/v1/satellites/57945 · /tle

For live sub-satellite position, see the globe view (requires WebGL).

§ Visibility from observer

Set your observer location to see the next 7 days of passes ≥ 10°. The values pass through the URL so the page stays shareable.

No JS? Fill the form by hand. The geolocation button needs JavaScript.